EW8956 Weather Reports


time (UTC)temp
F
wind
direction
speed
knots
gust
knots
rain 1hr
in
rain 24hr
in
rain mn
in
humidity
%
barometer
mb
20260505054548 62 200 0.9 6.1 0.00 0.00 0.00 49 1015.2
20260505053054 63 167 0.0 4.3 0.00 0.00 0.00 47 1015.3
20260505051543 64 124 0.0 4.3 0.00 0.00 0.00 45 1015.3
20260505041548 66 229 0.0 3.5 0.00 0.00 0.00 40 1015.3
20260505034550 66 223 0.0 3.5 0.00 0.00 0.00 37 1015.3
20260505033100 66 0 0.0 3.5 0.00 0.00 0.00 36 1015.4
20260505031555 67 105 0.9 5.2 0.00 0.00 0.00 36 1015.5
20260505030055 68 0 0.0 5.2 0.00 0.00 0.00 35 1015.4
20260505024552 68 199 0.0 3.5 0.00 0.00 0.00 34 1015.4
20260505023054 69 213 1.7 7.8 0.00 0.00 0.00 33 1015.3
20260505021553 69 244 1.7 7.0 0.00 0.00 0.00 33 1015.1
20260505020046 69 0 0.0 7.0 0.00 0.00 0.00 33 1015.1
20260505014549 70 0 0.0 3.5 0.00 0.00 0.00 33 1015.0
20260505013050 70 220 0.9 4.3 0.00 0.00 0.00 32 1014.9
20260505011551 71 0 0.0 8.7 0.00 0.00 0.00 32 1014.6
20260505010104 71 0 0.0 3.5 0.00 0.00 0.00 32 1014.4
20260505004552 71 0 0.0 2.6 0.00 0.00 0.00 32 1014.3
20260505003045 72 0 0.0 2.6 0.00 0.00 0.00 32 1014.2
20260505001551 73 209 0.0 5.2 0.00 0.00 0.00 32 1014.1
20260505000101 73 224 0.0 5.2 0.00 0.00 0.00 31 1014.1
20260504234552 74 213 0.9 4.3 0.00 0.00 0.00 31 1013.9
20260504233049 75 205 0.0 3.5 0.00 0.00 0.00 32 1013.7
20260504231547 75 259 1.7 8.7 0.00 0.00 0.00 31 1013.7
20260504230044 75 115 0.9 7.8 0.00 0.00 0.00 32 1013.6
20260504224554 76 209 1.7 6.1 0.00 0.00 0.00 32 1013.7
20260504223052 76 248 0.9 6.1 0.00 0.00 0.00 31 1013.8
20260504221549 76 226 2.6 9.6 0.00 0.00 0.00 31 1013.8
20260504220056 76 250 0.9 8.7 0.00 0.00 0.00 31 1013.8
20260504214544 77 221 3.5 9.6 0.00 0.00 0.00 31 1014.0
20260504213101 77 193 0.9 8.7 0.00 0.00 0.00 32 1013.8
20260504211544 77 216 1.7 7.8 0.00 0.00 0.00 32 1013.8
20260504210043 78 207 2.6 9.6 0.00 0.00 0.00 32 1013.8
20260504204545 79 0 0.0 5.2 0.00 0.00 0.00 31 1013.9
20260504203048 78 185 0.9 6.1 0.00 0.00 0.00 32 1014.0
20260504201547 78 200 0.9 6.1 0.00 0.00 0.00 32 1014.1
20260504200053 78 254 0.0 6.1 0.00 0.00 0.00 33 1014.3
20260504194556 79 216 1.7 6.1 0.00 0.00 0.00 32 1014.6
20260504193103 78 279 0.9 8.7 0.00 0.00 0.00 34 1014.7
20260504191549 77 219 0.0 7.0 0.00 0.00 0.00 34 1015.0
20260504190053 77 225 1.7 5.2 0.00 0.00 0.00 33 1015.3
20260504184551 78 325 0.0 7.8 0.00 0.00 0.00 32 1015.5
20260504183057 77 18 0.0 7.8 0.00 0.00 0.00 34 1015.4
20260504181551 75 188 0.9 4.3 0.00 0.00 0.00 37 1015.5
20260504180130 75 303 0.9 7.8 0.00 0.00 0.00 36 1015.7
20260504174550 75 303 0.9 4.3 0.00 0.00 0.00 35 1015.9
20260504173050 75 355 0.9 5.2 0.00 0.00 0.00 35 1015.8
20260504171552 74 207 0.9 5.2 0.00 0.00 0.00 34 1015.9
20260504120105 48 0 0.0 0.0 0.00 0.00 0.00 81 1017.6
20260504081553 45 0 0.0 0.0 0.00 0.00 0.00 76 1017.3